AL YAH 3

Last updated on Thu Sep 10 2026 00:02:59 GMT+0000 (Coordinated Universal Time)

1 43174U 18012A 26252.36778648 -.00000176 00000+0 00000+0 0 9990 2 43174 1.7631 81.9720 0003459 89.2405 289.5171 1.00271237 31690
UTC large
Height (km)
Speed (km/s)
/
Latitude / Longitude
Inclination (degrees)
Orbital Period (minutes)
Azimuth
Elevation
Range (km)
Doppler Factor

Next 0 passes for location: London (51.5072 / 0.1276)

No passes found over London.
AL YAH 3